Location: Highland Meadows Observing Site
(48.4428°N, 114.5461°W)
Time: 01:33:23
(UTC-06:00)

Gurwin Techsat 1B - Visible Passes

Search period start: 02 June 2015 00:00
Search period end: 12 June 2015 00:00
Orbit: 812 x 815 km, 98.5° (Epoch: 31 May)

Date Brightness Start Highest point End Pass type
(mag) Time Alt. Az. Time Alt. Az. Time Alt. Az.
02 Jun 11.2 02:35:31 10° ENE 02:35:59 10° E 02:36:48 10° E visible
02 Jun 8.9 04:11:46 10° NNE 04:17:06 70° ESE 04:22:25 10° S visible
03 Jun 9.5 03:49:10 10° NNE 03:54:16 45° E 03:59:23 10° S visible
04 Jun 10.1 03:26:44 10° NNE 03:31:21 30° E 03:36:01 10° SSE visible
05 Jun 10.7 03:04:35 10° NE 03:08:20 20° E 03:12:14 10° SE visible
05 Jun 8.8 04:43:35 10° N 04:48:53 67° WNW 04:54:09 10° SSW visible
06 Jun 11.0 02:43:06 10° ENE 02:45:13 13° E 02:47:37 10° ESE visible
06 Jun 8.7 04:20:48 10° NNE 04:26:09 82° ESE 04:31:30 10° SSW visible
07 Jun 9.2 03:58:08 10° NNE 04:03:22 54° E 04:08:35 10° S visible
08 Jun 9.9 03:35:38 10° NNE 03:40:29 35° E 03:45:22 10° SSE visible
09 Jun 10.5 03:13:20 10° NE 03:17:31 23° E 03:21:47 10° SE visible
09 Jun 8.9 04:52:40 10° N 04:57:54 56° WNW 05:03:05 10° SSW visible
10 Jun 10.9 02:51:29 10° NE 02:54:26 15° E 02:57:36 10° ESE visible
10 Jun 8.7 04:29:51 10° NNE 04:35:12 85° WNW 04:40:33 10° SSW visible
11 Jun 9.0 04:07:08 10° NNE 04:12:27 65° E 04:17:44 10° S visible
